Location: Unspecified
(64.9000°N, 0.0000°E)
Time: 00:58:10
(UTC+00:00)

Altair - Pass Details

Date: 17 June 2019
Orbit: 1501 x 1683 km, 47.2° (Epoch: 19 August)

Event Time Altitude Azimuth Distance (km) Brightness Sun altitude
Rises 20:36:54 0° 193° (SSW) 4,763 9.8 6.6°
Reaches altitude 10° 20:41:31 10° 174° (S) 3,818 9.1 6.2°
Maximum altitude 20:46:46 16° 141° (SE) 3,390 8.7 5.8°
Drops below altitude 10° 20:52:06 10° 108° (ESE) 3,898 9.1 5.5°
Sets 20:56:53 0° 89° (E) 4,914 9.8 5.1°
